[[{"header":{"parameterUnit":"m.s-1","parameterCategory":1,"la1":30.2991,"la2":30.254,"lo1":-89.0895,"lo2":-89.0444,"dy":0.0017,"dx":0.0017,"nx":28,"ny":28,"refTime":"2023-04-27T21:00:00:Z","depth":0,"parameterNumber":2,"parameterNumberName":"U-component_of_WINDS"},"data":[0,0,0,0,0,0,0,0,0,0,0,0,0,0,0,0,0,0,0,0,0,0,0,0,0,0,0,0,0,0,0,0,0,0,0,0,0,0,0,0,0,0,0,0,0,0,0,0,0,0,0,0,0,0,0,0,0,0,-3.1238,-3.1238,0,-3.1244,-3.1244,-3.1244,-3.1164,-3.1162,-3.116,-3.1158,-3.1163,-3.1165,-3.1167,0,0,0,0,0,0,0,0,0,0,0,0,0,-3.116,-3.1162,-3.1238,-3.1238,-3.1238,-3.1244,-3.1244,-3.1244,-3.1165,-3.1162,-3.116,-3.1157,-3.1162,-3.1165,-3.1167,0,0,0,0,0,0,0,0,0,0,0,0,0,-3.1183,-3.1163,-3.1238,-3.12,-3.1196,-3.1244,-3.1244,-3.1244,-3.1165,-3.1162,-3.1159,-3.1156,-3.1161,-3.1165,-3.1168,-3.1252,0,0,-3.1177,-3.1179,0,0,0,0,0,0,0,0,-3.1182,-3.1186,-3.1205,-3.1202,-3.1199,-3.12,-3.1218,-3.1246,-3.1166,-3.1177,-3.1158,-3.1154,-3.1178,-3.118,-3.1188,-3.1252,-3.1252,-3.1178,-3.118,-3.1181,-3.1182,0,0,0,0,0,0,0,-3.118,-3.1185,-3.124,-3.1206,-3.1202,-3.1182,-3.1182,-3.1223,-3.1195,-3.1176,-3.117,-3.1172,-3.1175,-3.1185,-3.1187,-3.1252,-3.1178,-3.118,-3.1182,-3.1184,-3.1388,-3.1391,0,0,0,0,0,0,-3.1184,-3.1184,-3.124,-3.124,-3.1182,-3.1186,-3.1186,-3.1203,-3.1195,-3.119,-3.1175,-3.1168,-3.1181,-3.1183,-3.1187,-3.1285,-3.1181,-3.1184,-3.1186,-3.1384,-3.1388,-3.1392,0,0,0,0,0,0,-3.1182,-3.119,-3.124,-3.1211,-3.1216,-3.1191,-3.1211,-3.1205,-3.1214,-3.1194,-3.1189,-3.1189,-3.1178,-3.1182,-3.1237,-3.1284,-3.1185,-3.1188,-3.138,-3.1385,-3.139,-3.1483,0,0,0,0,0,0,-3.1181,-3.119,-3.1221,-3.1212,-3.1218,-3.129,-3.1214,-3.1207,-3.122,-3.1211,-3.1206,-3.1202,-3.1176,-3.1232,-3.124,-3.1287,-3.1191,-3.1376,-3.1382,-3.1389,-3.1476,-3.1491,-3.1504,0,0,0,0,0,-3.1178,-3.1247,-3.1223,-3.123,-3.1257,-3.1292,-3.1296,-3.1264,-3.1224,-3.1255,-3.1243,-3.1202,-3.1278,-3.1239,-3.1246,-3.1295,-3.1372,-3.138,-3.1388,-3.1469,-3.1488,-3.1504,0,0,0,0,0,0,-3.1261,-3.1245,-3.1218,-3.1286,-3.1291,-3.1279,-3.1318,-3.1285,-3.1302,-3.1293,-3.1254,-3.1253,-3.1314,-3.131,-3.1266,-3.1377,-3.1318,-3.1328,-3.1377,-3.1395,-3.1409,-3.1408,-3.1194,0,0,0,0,0,-3.1287,-3.1318,-3.1302,-3.1363,-3.1367,-3.1343,-3.1357,-3.1333,-3.1337,-3.1338,-3.1329,-3.1335,-3.136,-3.1377,-3.1399,-3.1475,-3.1473,-3.1513,-3.1527,-3.1539,-3.1547,-3.1588,-3.1606,-3.1418,-3.1418,-3.1418,0,0,-3.1341,-3.1336,-3.1358,-3.138,-3.1381,-3.1414,-3.1345,-3.1382,-3.1406,-3.1344,-3.1394,-3.1389,-3.1392,-3.1458,-3.1486,-3.1456,-3.1599,-3.1549,-3.1558,-3.156,-3.1598,-3.1616,-3.1632,-3.1423,-3.1422,-3.1421,0,0,-3.1457,-3.1456,-3.1507,-3.1511,-3.1514,-3.1497,-3.151,-3.1503,-3.1497,-3.1548,-3.1502,-3.153,-3.1574,-3.1578,-3.1587,-3.1707,-3.167,-3.1715,-3.1788,-3.1829,-3.1843,-3.1856,-3.1899,-3.1915,-3.1724,-3.1724,-3.1724,0,-3.1523,-3.1571,-3.1538,-3.1579,-3.159,-3.1536,-3.1588,-3.1593,-3.1603,-3.1612,-3.1579,-3.1634,-3.1632,-3.1699,-3.1728,-3.1737,-3.175,-3.1715,-3.1844,-3.1857,-3.1868,-3.1909,-3.1925,-3.1729,-3.1729,-3.1728,-3.1728,0,-3.1653,-3.1687,-3.1728,-3.1741,-3.1757,-3.1803,-3.1777,-3.1797,-3.1773,-3.176,-3.1813,-3.1809,-3.183,-3.1844,-3.182,-3.1908,-3.1889,-3.1851,-3.1791,-3.1892,-3.193,-3.1945,-3.1737,-3.1735,-3.1734,-3.1732,0,0,-3.1819,-3.1814,-3.183,-3.1835,-3.1836,-3.1861,-3.1906,-3.1927,-3.1945,-3.1955,-3.1991,-3.2031,-3.1995,-3.2005,-3.1981,-3.2016,-3.2112,-3.1973,-3.1973,-3.1999,-3.221,-3.2239,-3.2257,-3.2089,-3.2092,-3.2094,-3.221,0,-3.1931,-3.2007,-3.1979,-3.2057,-3.2088,-3.2039,-3.2078,-3.2083,-3.2072,-3.2098,-3.2086,-3.2115,-3.2066,-3.2072,-3.2105,-3.2094,-3.2154,-3.2085,-3.2122,-3.2124,-3.2122,-3.2277,-3.2307,-3.2416,-3.2224,-3.2226,-3.2228,0,-3.2072,-3.2088,-3.2169,-3.2166,-3.2178,-3.2213,-3.2231,-3.2256,-3.2261,-3.2251,-3.2263,-3.2232,-3.2276,-3.2217,-3.2277,-3.2231,-3.2245,-3.2242,-3.2246,-3.2247,-3.2182,-3.2282,-3.245,-3.2466,-3.2251,-3.2249,-3.2247,0,-3.2185,-3.2227,-3.2281,-3.2287,-3.2285,-3.2311,-3.2311,-3.2313,-3.2328,-3.2344,-3.2353,-3.2374,-3.2385,-3.2402,-3.2378,-3.2337,-3.2442,-3.2381,-3.2435,-3.2436,-3.2459,-3.2457,-3.2631,-3.2469,-3.2469,-3.2468,-3.2468,0,-3.2312,-3.2364,-3.2332,-3.2365,-3.2422,-3.239,-3.2447,-3.2442,-3.2445,-3.2476,-3.2435,-3.2465,-3.2432,-3.246,-3.2441,-3.2494,-3.2499,-3.2493,-3.2487,-3.2496,-3.2497,-3.2504,-3.2496,-3.2473,-3.2472,-3.2471,-3.247,0,-3.2447,-3.2428,-3.2484,-3.2478,-3.2478,-3.252,-3.2514,-3.2545,-3.2533,-3.2574,-3.2581,-3.2562,-3.2593,-3.2571,-3.2601,-3.2588,-3.2658,-3.2642,-3.2657,-3.2652,-3.2708,-3.2703,-3.2891,-3.2914,-3.2738,-3.274,-3.2741,0,-3.253,-3.2568,-3.2567,-3.2586,-3.2589,-3.2619,-3.2635,-3.2606,-3.2624,-3.2634,-3.2663,-3.2691,-3.2711,-3.2762,-3.2751,-3.2775,-3.2758,-3.2823,-3.2761,-3.277,-3.2759,-3.2757,-3.2761,-3.2835,-3.2837,-3.2839,-3.284,0,-3.2678,-3.2667,-3.2691,-3.2713,-3.2733,-3.2748,-3.276,-3.2778,-3.2749,-3.2771,-3.2802,-3.2818,-3.285,-3.2878,-3.2897,-3.2897,-3.2865,-3.286,-3.2874,-3.2883,-3.289,-3.2887,-3.269,-3.2855,-3.2854,-3.2853,-3.2852,-3.2851,-3.2789,-3.2821,-3.2826,-3.2855,-3.2861,-3.2874,-3.2903,-3.2895,-3.2921,-3.2945,-3.2926,-3.2964,-3.297,-3.2993,-3.2997,-3.3027,-3.3,-3.302,-3.3025,-3.303,-3.3038,-3.2886,-3.303,-3.303,-3.3029,-3.3029,-3.3028,0,-3.2935,-3.2936,-3.2963,-3.2982,-3.3005,-3.2973,-3.2985,-3.3006,-3.304,-3.3048,-3.307,-3.3107,-3.3134,-3.3126,-3.3151,-3.3176,-3.3161,-3.3183,-3.318,-3.3181,-3.306,-3.3046,-3.3194,-3.3194,-3.3194,-3.3194,-3.3194,-3.3194,-3.3013,-3.3067,-3.3057,-3.3114,-3.3115,-3.3152,-3.3162,-3.3174,-3.318,-3.3223,-3.3246,-3.3241,-3.3243,-3.3268,-3.3292,-3.3289,-3.33,-3.3328,-3.3319,-3.3206,-3.319,-3.3174,-3.316,-3.333,-3.333,-3.3437,-3.3438,-3.3439]},{"header":{"parameterUnit":"m.s-1","parameterCategory":1,"la1":30.2991,"la2":30.254,"lo1":-89.0895,"lo2":-89.0444,"dy":0.0017,"dx":0.0017,"nx":28,"ny":28,"refTime":"2023-04-27T21:00:00:Z","depth":0,"parameterNumber":3,"parameterNumberName":"V-component_of_WINDS"},"data":[0,0,0,0,0,0,0,0,0,0,0,0,0,0,0,0,0,0,0,0,0,0,0,0,0,0,0,0,0,0,0,0,0,0,0,0,0,0,0,0,0,0,0,0,0,0,0,0,0,0,0,0,0,0,0,0,0,0,-0.2447,-0.2447,0,-0.2442,-0.2442,-0.2442,-0.2435,-0.2435,-0.2434,-0.2434,-0.2429,-0.2429,-0.2429,0,0,0,0,0,0,0,0,0,0,0,0,0,-0.2446,-0.2446,-0.2447,-0.2447,-0.2446,-0.2442,-0.2442,-0.2442,-0.2435,-0.2435,-0.2434,-0.2434,-0.2429,-0.2429,-0.2429,0,0,0,0,0,0,0,0,0,0,0,0,0,-0.2445,-0.2446,-0.2447,-0.2442,-0.2442,-0.2442,-0.2442,-0.2442,-0.2435,-0.2435,-0.2434,-0.2434,-0.2429,-0.2429,-0.2429,-0.2433,0,0,-0.2429,-0.2429,0,0,0,0,0,0,0,0,-0.2445,-0.2445,-0.2443,-0.2443,-0.2442,-0.2439,-0.244,-0.2439,-0.2435,-0.2437,-0.2434,-0.2434,-0.2433,-0.2432,-0.2432,-0.2433,-0.2433,-0.2429,-0.2429,-0.2429,-0.2429,0,0,0,0,0,0,0,-0.2445,-0.2445,-0.2445,-0.2443,-0.2442,-0.244,-0.2439,-0.244,-0.2436,-0.2437,-0.2437,-0.2436,-0.2432,-0.2432,-0.2432,-0.2433,-0.2429,-0.2429,-0.2429,-0.2429,-0.2435,-0.2435,0,0,0,0,0,0,-0.2446,-0.2445,-0.2445,-0.2445,-0.2443,-0.244,-0.244,-0.244,-0.2436,-0.2435,-0.2436,-0.2436,-0.2432,-0.2432,-0.2432,-0.2435,-0.2429,-0.2429,-0.2429,-0.2435,-0.2435,-0.2435,0,0,0,0,0,0,-0.2446,-0.2446,-0.2445,-0.2445,-0.2444,-0.244,-0.2441,-0.244,-0.244,-0.2436,-0.2435,-0.2437,-0.2432,-0.2432,-0.2433,-0.2435,-0.2429,-0.2429,-0.2435,-0.2435,-0.2435,-0.2443,0,0,0,0,0,0,-0.2446,-0.2446,-0.2448,-0.2445,-0.2444,-0.2447,-0.2441,-0.244,-0.244,-0.2439,-0.2436,-0.2435,-0.2432,-0.2433,-0.2433,-0.2435,-0.2429,-0.2434,-0.2435,-0.2435,-0.2442,-0.2443,-0.2444,0,0,0,0,0,-0.2446,-0.2451,-0.2448,-0.2448,-0.2447,-0.2447,-0.2447,-0.2443,-0.244,-0.2442,-0.2439,-0.2435,-0.2434,-0.2433,-0.2433,-0.2435,-0.2434,-0.2435,-0.2435,-0.2442,-0.2443,-0.2444,0,0,0,0,0,0,-0.2455,-0.245,-0.2448,-0.2452,-0.245,-0.2446,-0.2448,-0.2445,-0.2444,-0.2443,-0.2438,-0.2437,-0.2438,-0.2437,-0.2435,-0.2437,-0.2434,-0.2434,-0.2439,-0.244,-0.2441,-0.2441,-0.2429,0,0,0,0,0,-0.2457,-0.2458,-0.2454,-0.2458,-0.2457,-0.2453,-0.2453,-0.245,-0.2447,-0.2447,-0.2444,-0.2441,-0.244,-0.244,-0.2439,-0.2441,-0.244,-0.2443,-0.2443,-0.2444,-0.2445,-0.2444,-0.2445,-0.2436,-0.2436,-0.2436,0,0,-0.2463,-0.246,-0.2461,-0.246,-0.2458,-0.2458,-0.2452,-0.2453,-0.2453,-0.2447,-0.2447,-0.2445,-0.2442,-0.2443,-0.2444,-0.2442,-0.2446,-0.2445,-0.2445,-0.2445,-0.2445,-0.2446,-0.2446,-0.2436,-0.2436,-0.2436,0,0,-0.2472,-0.2471,-0.2473,-0.2471,-0.2468,-0.2465,-0.2465,-0.2461,-0.246,-0.246,-0.2455,-0.2454,-0.2453,-0.245,-0.2449,-0.2455,-0.2451,-0.2454,-0.2459,-0.2459,-0.2459,-0.246,-0.2461,-0.2462,-0.2455,-0.2455,-0.2455,0,-0.2479,-0.248,-0.2475,-0.2476,-0.2475,-0.2468,-0.247,-0.2468,-0.2465,-0.2464,-0.2461,-0.2458,-0.2456,-0.2456,-0.2457,-0.2456,-0.2456,-0.2455,-0.246,-0.246,-0.2461,-0.2462,-0.2463,-0.2455,-0.2455,-0.2455,-0.2455,0,-0.2488,-0.2488,-0.249,-0.2487,-0.2486,-0.2487,-0.2482,-0.2481,-0.2477,-0.2474,-0.2473,-0.247,-0.2467,-0.2467,-0.2463,-0.2465,-0.2464,-0.2461,-0.2457,-0.2462,-0.2463,-0.2464,-0.2456,-0.2456,-0.2455,-0.2455,0,0,-0.2505,-0.2497,-0.2498,-0.2496,-0.2491,-0.2491,-0.2491,-0.2488,-0.2487,-0.2484,-0.2484,-0.2482,-0.2478,-0.2476,-0.2472,-0.2472,-0.2475,-0.2468,-0.2468,-0.2469,-0.2476,-0.2479,-0.2479,-0.2472,-0.2472,-0.2473,-0.2476,0,-0.2514,-0.2514,-0.2508,-0.251,-0.2509,-0.2502,-0.2502,-0.2498,-0.2494,-0.2492,-0.2488,-0.2486,-0.2482,-0.2481,-0.248,-0.2475,-0.2477,-0.2475,-0.2471,-0.2471,-0.2472,-0.248,-0.2483,-0.2487,-0.2477,-0.2477,-0.2477,0,-0.2524,-0.2521,-0.2523,-0.2516,-0.2516,-0.2516,-0.2512,-0.251,-0.2505,-0.2502,-0.2499,-0.2494,-0.2493,-0.2488,-0.2485,-0.2484,-0.2482,-0.2479,-0.2479,-0.2479,-0.2475,-0.248,-0.2488,-0.2489,-0.2477,-0.2477,-0.2477,0,-0.2536,-0.2532,-0.2532,-0.2531,-0.2523,-0.2523,-0.252,-0.2514,-0.2512,-0.2508,-0.2507,-0.2503,-0.25,-0.2497,-0.249,-0.2488,-0.2488,-0.2483,-0.2484,-0.2485,-0.2485,-0.2485,-0.2493,-0.2484,-0.2484,-0.2484,-0.2484,0,-0.2546,-0.2547,-0.2537,-0.2537,-0.2538,-0.253,-0.253,-0.2526,-0.2521,-0.252,-0.2513,-0.2511,-0.2502,-0.2499,-0.2494,-0.2492,-0.2491,-0.2488,-0.2486,-0.2488,-0.2489,-0.2487,-0.2487,-0.2484,-0.2484,-0.2484,-0.2484,0,-0.256,-0.2553,-0.2553,-0.2545,-0.2543,-0.2543,-0.2536,-0.2535,-0.253,-0.2528,-0.2527,-0.2518,-0.2514,-0.2507,-0.2501,-0.2497,-0.2496,-0.2494,-0.2498,-0.2497,-0.2498,-0.2498,-0.2506,-0.2506,-0.2496,-0.2496,-0.2497,0,-0.2567,-0.2568,-0.2559,-0.2557,-0.2554,-0.2552,-0.2549,-0.2541,-0.2539,-0.2532,-0.2531,-0.2527,-0.2522,-0.2516,-0.2509,-0.2504,-0.2501,-0.2504,-0.25,-0.2502,-0.2501,-0.2501,-0.25,-0.2505,-0.2505,-0.2505,-0.2505,0,-0.258,-0.2576,-0.2573,-0.2568,-0.2566,-0.2561,-0.2557,-0.2556,-0.2546,-0.2544,-0.2539,-0.2536,-0.2529,-0.2524,-0.2517,-0.2513,-0.2507,-0.2506,-0.2506,-0.2509,-0.2511,-0.2509,-0.25,-0.2507,-0.2506,-0.2506,-0.2506,-0.2506,-0.2591,-0.259,-0.2584,-0.258,-0.2575,-0.257,-0.2569,-0.2563,-0.2559,-0.2553,-0.2548,-0.2543,-0.2536,-0.2527,-0.2522,-0.2518,-0.2516,-0.2516,-0.2516,-0.2516,-0.2516,-0.2511,-0.2517,-0.2517,-0.2517,-0.2517,-0.2517,0,-0.2603,-0.2598,-0.2594,-0.2588,-0.2584,-0.2579,-0.2573,-0.257,-0.2566,-0.256,-0.2556,-0.2549,-0.2544,-0.2536,-0.2529,-0.2527,-0.2524,-0.2526,-0.2526,-0.2525,-0.2519,-0.252,-0.2528,-0.2528,-0.2528,-0.2528,-0.2528,-0.2528,-0.2609,-0.2607,-0.2602,-0.2598,-0.2592,-0.2588,-0.2585,-0.258,-0.2575,-0.2568,-0.2563,-0.2558,-0.255,-0.2543,-0.2537,-0.2534,-0.2532,-0.2534,-0.2531,-0.2526,-0.2525,-0.2524,-0.2525,-0.2534,-0.2534,-0.2537,-0.2537,-0.2537]}]]